Overview Statistics Trail Chart Weather Telemetry Raw packets
 

This is the latest recevied weather packets stored in our database for station/object KC0RKM-13. If no packets are shown the sender has not sent any weather packets the latest 10 day(s).

<< 46 47 48 49 50 51 52 >>
Time Temp. Humidity Pressure Rain* Wind** Luminosity Snow
1787841003 23.89° C 68% 1019.9 hPa 0 mm - - -
1787840403 23.89° C 68% 1020.1 hPa 0 mm - - -
1787839811 24.44° C 67% 1020 hPa 0 mm - - -
1787839203 23.89° C 69% 1019.8 hPa 0 mm - - -
1787838603 23.33° C 71% 1019.8 hPa 0 mm - - -
1787838004 22.78° C 73% 1019.6 hPa 0 mm - - -
1787837403 22.78° C 73% 1019.9 hPa 0 mm - - -
1787836804 21.67° C 74% 1019.8 hPa 0 mm - - -
1787836209 21.67° C 76% 1019.8 hPa 0 mm - - -
1787835604 21.11° C 78% 1019.8 hPa 0 mm - - -
1787835004 20.56° C 81% 1019.8 hPa 0 mm - - -
1787834404 20° C 83% 1019.9 hPa 0 mm - - -
1787833803 19.44° C 85% 1019.7 hPa 0 mm - - -
1787833204 18.89° C 86% 1019.6 hPa 0 mm - - -
1787832603 18.33° C 86% 1019.4 hPa 0 mm - - -
1787832003 18.33° C 86% 1019.3 hPa 0 mm - - -
1787831403 18.33° C 85% 1019.5 hPa 0 mm - - -
1787830803 18.89° C 85% 1019.2 hPa 0 mm - - -
1787830208 18.89° C 85% 1019 hPa 0 mm - - -
1787829604 18.89° C 86% 1018.8 hPa 0 mm - - -
1787829004 18.89° C 87% 1018.7 hPa 0 mm - - -
1787828404 18.89° C 87% 1018.7 hPa 0 mm - - -
1787827804 18.89° C 86% 1018.5 hPa 0 mm - - -
1787827203 18.89° C 86% 1018.3 hPa 0 mm - - -
1787826603 18.89° C 86% 1018.4 hPa 0 mm - - -

* Rain latest hour (hover to see other rain measurements)
** Current wind speed in m/s (hover to see current wind gust speed)